When you browse on this site, cookies collect data to enhance your experience and personalize the content and advertising you see.
Visit our Privacy Policy to learn more. By continuing to use the site, you agree to this use of cookies and data.
  • In Denmark
  • List of Countries
  • For 7 days
  • Water Temperature
  • Weather Map
  • Weather Widgets
  • user-avatar
    Login

    Hourly Weather Abovyan

    Today, 19 November, Tuesday

    Time Temperature Precipitation Wind Pressure Humidity
    00:00 +4°C° 0 mm 1 mps 675 mmHg 39%
    01:00 +4°C° 0 mm 1 mps 674 mmHg 39%
    02:00 +3°C° 0 mm 1 mps 674 mmHg 39%
    03:00 +3°C° 0 mm 1 mps 674 mmHg 39%
    04:00 +3°C° 0 mm 1 mps 674 mmHg 41%
    05:00 +2°C° 0 mm 1 mps 674 mmHg 42%
    06:00 +2°C° 0 mm 1 mps 674 mmHg 43%
    07:00 +4°C° 0 mm 1 mps 674 mmHg 37%
    08:00 +6°C° 0 mm 1 mps 675 mmHg 31%
    09:00 +8°C° 0 mm 1 mps 675 mmHg 25%
    10:00 +9°C° 0 mm 1 mps 675 mmHg 24%
    11:00 +10°C° 0 mm 1 mps 675 mmHg 22%
    12:00 +11°C° 0 mm 1 mps 674 mmHg 20%
    13:00 +12°C° 0 mm 1 mps 674 mmHg 20%
    14:00 +12°C° 0 mm 1 mps 674 mmHg 20%
    15:00 +12°C° 0 mm 1 mps 674 mmHg 20%
    16:00 +10°C° 0 mm 1 mps 673 mmHg 22%
    17:00 +9°C° 0 mm 1 mps 673 mmHg 25%
    18:00 +6°C° 0 mm 2 mps 673 mmHg 27%
    19:00 +7°C° 0 mm 1 mps 673 mmHg 27%
    20:00 +6°C° 0 mm 1 mps 673 mmHg 28%
    21:00 +6°C° 0 mm 1 mps 673 mmHg 29%
    22:00 +5°C° 0 mm 1 mps 673 mmHg 30%
    23:00 +5°C° 0 mm 1 mps 673 mmHg 31%

    Tomorrow, 20 November, Wednesday

    Time Temperature Precipitation Wind Pressure Humidity
    00:00 +4°C° 0 mm 1 mps 673 mmHg 33%
    01:00 +4°C° 0 mm 1 mps 673 mmHg 35%
    02:00 +4°C° 0 mm 1 mps 673 mmHg 38%
    03:00 +3°C° 0 mm 1 mps 673 mmHg 41%
    04:00 +3°C° 0 mm 1 mps 673 mmHg 41%
    05:00 +3°C° 0 mm 1 mps 672 mmHg 41%
    06:00 +3°C° 0 mm 1 mps 672 mmHg 42%
    07:00 +3°C° 0 mm 0 mps 673 mmHg 36%
    08:00 +5°C° 0 mm 0 mps 673 mmHg 30%
    09:00 +7°C° 0 mm 0 mps 674 mmHg 25%
    10:00 +8°C° 0 mm 0 mps 673 mmHg 24%
    11:00 +10°C° 0 mm 1 mps 673 mmHg 24%
    12:00 +11°C° 0 mm 1 mps 673 mmHg 23%
    13:00 +11°C° 0 mm 1 mps 672 mmHg 24%
    14:00 +12°C° 0 mm 1 mps 672 mmHg 24%
    15:00 +12°C° 0 mm 1 mps 672 mmHg 24%
    16:00 +10°C° 0 mm 1 mps 671 mmHg 28%
    17:00 +8°C° 0 mm 1 mps 671 mmHg 32%
    18:00 +5°C° 0 mm 0 mps 671 mmHg 35%
    19:00 +6°C° 0 mm 1 mps 671 mmHg 35%
    20:00 +6°C° 0 mm 1 mps 671 mmHg 35%
    21:00 +5°C° 0 mm 1 mps 671 mmHg 35%
    22:00 +5°C° 0 mm 1 mps 671 mmHg 36%
    23:00 +4°C° 0 mm 1 mps 671 mmHg 37%

    Day after tomorrow, 21 November, Thursday

    Time Temperature Precipitation Wind Pressure Humidity
    00:00 +4°C° 0 mm 1 mps 671 mmHg 38%
    01:00 +4°C° 0 mm 1 mps 671 mmHg 40%
    02:00 +4°C° 0 mm 1 mps 671 mmHg 41%
    03:00 +3°C° 0 mm 1 mps 671 mmHg 42%
    04:00 +3°C° 0 mm 1 mps 670 mmHg 44%
    05:00 +3°C° 0 mm 1 mps 670 mmHg 47%
    06:00 +2°C° 0 mm 1 mps 670 mmHg 49%
    07:00 +4°C° 0 mm 1 mps 671 mmHg 43%
    08:00 +5°C° 0 mm 0 mps 672 mmHg 38%
    09:00 +6°C° 0 mm 0 mps 672 mmHg 32%
    10:00 +8°C° 0 mm 1 mps 672 mmHg 31%
    11:00 +9°C° 0 mm 1 mps 672 mmHg 30%
    12:00 +10°C° 0 mm 1 mps 671 mmHg 29%
    13:00 +10°C° 0 mm 1 mps 671 mmHg 30%
    14:00 +10°C° 0 mm 1 mps 671 mmHg 30%
    15:00 +10°C° 0 mm 1 mps 671 mmHg 31%
    16:00 +9°C° 0 mm 1 mps 671 mmHg 37%
    17:00 +7°C° 0 mm 1 mps 671 mmHg 44%
    18:00 +6°C° 0 mm 1 mps 671 mmHg 50%
    19:00 +4°C° 0 mm 2 mps 671 mmHg 52%
    20:00 +4°C° 0 mm 2 mps 672 mmHg 54%
    21:00 +3°C° 0 mm 2 mps 672 mmHg 56%
    22:00 +3°C° 0 mm 2 mps 672 mmHg 58%
    23:00 +2°C° 0 mm 2 mps 673 mmHg 60%

    22 November, Friday

    Time Temperature Precipitation Wind Pressure Humidity
    00:00 +2°C° 0 mm 2 mps 673 mmHg 61%
    01:00 +1°C° 0 mm 2 mps 673 mmHg 63%
    02:00 +2°C° 0 mm 1 mps 673 mmHg 65%
    03:00 +2°C° 0 mm 1 mps 673 mmHg 67%
    04:00 +1°C° 0 mm 1 mps 674 mmHg 69%
    05:00 +1°C° 0 mm 1 mps 674 mmHg 70%
    06:00 +1°C° 0 mm 1 mps 674 mmHg 72%
    07:00 +2°C° 0 mm 1 mps 675 mmHg 66%
    08:00 +3°C° 0 mm 1 mps 675 mmHg 60%
    09:00 +5°C° 0 mm 1 mps 676 mmHg 54%
    10:00 +6°C° 0 mm 1 mps 676 mmHg 51%
    11:00 +6°C° 0 mm 1 mps 676 mmHg 48%
    12:00 +6°C° 0 mm 2 mps 676 mmHg 45%
    13:00 +7°C° 0 mm 2 mps 676 mmHg 45%
    14:00 +8°C° 0 mm 1 mps 675 mmHg 45%
    15:00 +8°C° 0 mm 1 mps 675 mmHg 44%
    16:00 +7°C° 0 mm 1 mps 675 mmHg 50%
    17:00 +5°C° 0 mm 1 mps 676 mmHg 55%
    18:00 +4°C° 0 mm 1 mps 676 mmHg 61%
    19:00 +3°C° 0 mm 1 mps 676 mmHg 62%
    20:00 +3°C° 0 mm 1 mps 676 mmHg 63%
    21:00 +3°C° 0 mm 1 mps 676 mmHg 64%
    22:00 +2°C° 0 mm 1 mps 676 mmHg 66%
    23:00 +2°C° 0 mm 1 mps 677 mmHg 67%

    23 November, Saturday

    Time Temperature Precipitation Wind Pressure Humidity
    00:00 +2°C° 0 mm 1 mps 677 mmHg 69%
    01:00 +1°C° 0 mm 1 mps 676 mmHg 70%
    02:00 +1°C° 0 mm 1 mps 676 mmHg 72%
    03:00 0°C° 0 mm 1 mps 676 mmHg 74%
    04:00 0°C° 0 mm 1 mps 676 mmHg 75%
    05:00 0°C° 0 mm 1 mps 676 mmHg 76%
    06:00 0°C° 0 mm 1 mps 676 mmHg 76%
    07:00 +1°C° 0 mm 1 mps 677 mmHg 70%
    08:00 +2°C° 0 mm 1 mps 677 mmHg 64%
    09:00 +3°C° 0 mm 1 mps 677 mmHg 58%
    10:00 +4°C° 0 mm 1 mps 677 mmHg 54%
    11:00 +5°C° 0 mm 1 mps 677 mmHg 50%
    12:00 +5°C° 0 mm 2 mps 676 mmHg 47%
    13:00 +7°C° 0 mm 1 mps 676 mmHg 46%
    14:00 +7°C° 0 mm 1 mps 676 mmHg 46%
    15:00 +7°C° 0 mm 1 mps 676 mmHg 45%
    16:00 +6°C° 0 mm 1 mps 676 mmHg 50%
    17:00 +5°C° 0 mm 1 mps 675 mmHg 55%
    18:00 +2°C° 0 mm 0 mps 675 mmHg 60%
    19:00 +2°C° 0 mm 0 mps 676 mmHg 61%
    20:00 +1°C° 0 mm 0 mps 676 mmHg 62%
    21:00 +1°C° 0 mm 0 mps 676 mmHg 63%
    22:00 +1°C° 0 mm 0 mps 676 mmHg 65%
    23:00 0°C° 0 mm 0 mps 676 mmHg 67%

    24 November, Sunday

    Time Temperature Precipitation Wind Pressure Humidity
    00:00 0°C° 0 mm 0 mps 676 mmHg 69%
    01:00 0°C° 0 mm 0 mps 675 mmHg 70%
    02:00 0°C° 0 mm 0 mps 675 mmHg 71%
    03:00 -1°C° 0 mm 0 mps 675 mmHg 72%
    04:00 -1°C° 0 mm 0 mps 675 mmHg 72%
    05:00 -1°C° 0 mm 0 mps 675 mmHg 72%
    06:00 -1°C° 0 mm 0 mps 675 mmHg 73%
    07:00 0°C° 0 mm 0 mps 675 mmHg 66%
    08:00 +2°C° 0 mm 0 mps 676 mmHg 59%
    09:00 +3°C° 0 mm 0 mps 676 mmHg 52%
    10:00 +5°C° 0 mm 1 mps 675 mmHg 50%
    11:00 +6°C° 0 mm 1 mps 675 mmHg 47%
    12:00 +7°C° 0 mm 1 mps 675 mmHg 45%
    13:00 +7°C° 0 mm 1 mps 674 mmHg 44%
    14:00 +7°C° 0 mm 1 mps 674 mmHg 44%
    15:00 +8°C° 0 mm 1 mps 673 mmHg 44%
    16:00 +6°C° 0 mm 1 mps 674 mmHg 49%
    17:00 +4°C° 0 mm 0 mps 674 mmHg 54%
    18:00 +2°C° 0 mm 0 mps 674 mmHg 60%
    19:00 +2°C° 0 mm 0 mps 674 mmHg 61%
    20:00 +2°C° 0 mm 0 mps 674 mmHg 62%
    21:00 +1°C° 0 mm 0 mps 674 mmHg 62%
    22:00 +1°C° 0 mm 0 mps 674 mmHg 63%
    23:00 +1°C° 0 mm 0 mps 674 mmHg 64%
    Show more